Wind_Speed
12 10 9 7 7 7 7 6 5 4 3 5 5 5 4 4 4 5 5 4 4 4 4 5 4 4 4 4 4 5 5 6 7 7 8 9 9 10 11 11 12 12 13 13 13 13 13 13 14
14 12 10 9 8 7 8 6 5 4 4 5 5 4 3 4 4 4 4 4 4 4 4 4 4 4 4 4 4 5 6 7 7 8 8 9 10 10 11 11 12 12 13 13 13 13 14 14 14
15 14 12 10 9 9 8 6 5 4 4 5 4 4 3 3 3 4 4 4 4 4 4 3 3 3 3 4 4 5 6 7 7 8 8 9 10 11 11 12 12 13 13 13 14 14 14 14 14
16 15 14 12 11 11 9 6 5 4 5 6 5 4 4 3 4 4 5 4 4 4 4 3 2 2 3 4 5 6 6 7 8 8 9 10 11 11 12 13 13 13 14 14 14 14 14 14 14
18 16 15 14 13 13 10 8 7 6 6 6 5 4 4 4 4 4 4 4 4 4 3 3 3 3 4 5 5 6 7 8 9 9 10 10 11 11 12 12 13 13 13 13 14 14 14 14 15
19 17 16 15 14 14 11 10 8 8 7 7 6 5 4 4 4 4 4 4 4 3 4 4 4 4 5 5 6 6 7 8 9 10 10 11 11 11 11 12 12 12 12 13 13 14 14 14 15
20 19 17 16 15 15 13 11 10 9 8 8 7 5 4 4 4 4 4 4 4 4 4 4 4 4 5 6 6 7 8 9 10 10 10 10 11 11 11 12 12 12 13 13 13 13 14 14 15
21 20 19 18 17 16 12 11 11 10 9 8 7 5 5 4 4 5 5 5 4 4 3 3 4 4 5 5 6 7 8 9 9 10 10 11 12 12 12 13 13 13 13 14 14 14 14 14 15
23 22 21 19 17 15 13 12 11 10 10 9 7 6 6 5 5 5 5 5 5 4 4 4 4 5 5 6 7 8 9 9 10 11 11 12 12 12 13 13 13 13 14 14 14 14 14 14 15
24 23 21 19 18 15 13 12 11 11 10 9 8 7 6 6 6 6 5 5 4 4 4 4 4 4 5 6 7 8 9 10 10 11 12 12 13 13 13 13 13 14 14 14 14 14 14 14 15
25 24 22 20 18 16 14 13 12 11 11 10 8 7 6 6 6 5 5 5 5 5 4 4 3 4 5 6 7 8 9 10 11 11 12 13 14 14 14 13 14 14 14 14 14 14 14 14 13
26 25 24 21 20 18 16 14 14 12 11 10 9 7 7 7 6 6 5 5 5 4 4 3 3 5 6 7 7 8 9 10 11 12 13 13 14 14 14 14 15 15 15 15 14 13 13 13 13
26 25 23 22 21 19 16 14 14 13 12 11 9 8 8 7 7 7 6 5 5 4 4 4 4 5 6 7 7 8 10 11 11 12 13 14 14 14 15 15 15 15 15 15 14 13 13 13 13
25 25 24 22 20 19 16 15 14 13 12 11 11 10 9 9 8 8 7 6 5 4 4 4 4 5 6 7 8 9 10 11 12 13 14 14 15 15 16 16 16 16 16 15 14 14 13 12 12
25 24 23 22 20 18 17 15 14 14 13 11 10 10 10 9 8 7 6 6 5 4 4 4 4 5 6 8 8 9 10 11 12 14 14 15 16 16 16 16 16 16 16 16 15 14 13 12 12
24 23 22 20 19 18 18 16 14 13 12 11 10 9 9 8 7 7 6 5 5 4 4 4 5 6 7 8 9 9 10 12 13 14 15 15 16 16 17 17 17 17 16 16 15 14 13 12 12
23 22 21 20 19 18 17 14 12 12 12 11 11 10 9 8 8 7 6 6 5 5 4 4 5 6 7 8 9 9 10 11 12 13 14 15 16 17 17 17 17 17 17 16 15 14 13 12 12
20 19 19 18 18 18 16 13 12 12 11 11 10 10 9 9 8 7 6 6 5 5 4 5 6 6 7 8 8 9 10 11 12 13 14 15 16 16 17 17 17 17 17 17 16 14 14 13 12
19 18 16 16 17 16 15 13 12 11 11 11 11 10 9 9 8 7 6 6 5 4 4 5 6 6 7 7 8 9 10 11 12 13 14 15 16 16 17 17 17 18 17 16 16 14 14 13 12
21 19 15 13 13 13 13 12 12 11 11 11 11 10 10 9 8 7 6 6 5 4 5 5 6 7 7 7 8 9 10 11 12 13 14 15 16 16 17 17 17 18 17 17 16 14 14 13 11
20 17 14 12 12 12 12 11 11 11 10 10 9 10 9 8 8 7 6 5 4 4 5 5 6 7 8 8 8 9 10 10 12 13 14 15 15 16 16 17 17 18 18 17 16 15 14 13 11
17 15 13 12 11 10 10 10 11 10 9 9 9 9 9 8 7 7 6 5 4 4 5 5 6 7 7 8 8 9 10 10 12 13 14 14 15 16 16 17 17 18 18 18 17 15 14 13 12
16 15 14 12 11 9 10 10 11 9 9 9 9 9 9 8 7 6 5 5 4 5 5 6 6 7 8 8 8 9 9 10 12 13 13 14 15 15 16 17 17 17 18 18 17 16 15 14 12
16 15 13 12 11 10 9 10 11 9 8 8 8 8 9 8 7 6 5 5 5 5 6 6 7 7 7 7 8 9 10 10 11 12 13 14 14 15 16 17 17 17 17 18 17 17 16 14 13
16 16 14 13 11 11 10 8 8 8 8 7 7 8 8 8 7 6 5 5 5 5 5 6 7 7 7 7 8 9 10 11 12 12 13 14 14 15 16 16 17 17 17 17 17 17 16 15 13
17 15 13 12 11 10 10 10 8 7 7 7 7 7 7 7 6 5 5 5 5 5 5 6 7 7 7 8 8 9 10 11 11 12 13 14 14 15 15 16 16 17 17 17 17 17 16 15 13
17 13 10 9 9 10 10 11 9 8 8 7 7 7 7 6 6 5 5 5 5 5 6 6 7 7 7 8 9 9 10 11 12 13 13 14 14 15 16 16 16 16 17 17 17 17 16 15 13
16 15 12 11 10 9 9 9 8 8 8 8 8 8 7 6 6 6 6 6 6 6 7 7 7 7 8 9 9 10 11 11 12 13 13 14 14 15 16 16 16 16 16 17 17 17 17 15 14
15 13 11 9 8 7 8 9 8 7 7 8 8 8 8 7 7 7 6 6 6 7 7 8 8 8 9 10 10 11 11 12 13 13 13 14 14 15 15 16 16 16 16 16 17 17 16 16 14
14 14 12 9 8 9 9 9 8 7 7 8 7 7 7 7 7 7 7 7 7 8 8 8 8 8 9 10 11 11 12 12 13 14 14 14 15 15 15 16 16 16 16 16 16 16 16 16 14
Wind_Direction
256 260 266 269 279 282 280 278 281 278 246 228 235 231 225 236 249 259 268 265 265 270 270 272 273 279 282 290 296 300 308 311 309 304 300 299 296 294 292 288 286 286 283 279 274 269 265 264 262
249 251 254 259 270 275 268 270 276 265 252 236 239 231 232 244 256 264 271 273 275 279 279 277 276 281 284 294 299 302 311 316 314 312 308 304 303 300 294 291 288 288 288 285 280 275 267 265 262
244 243 244 249 258 263 261 264 269 263 255 241 232 230 241 257 267 268 271 272 282 280 279 271 271 279 292 301 310 312 317 320 320 318 316 308 303 300 297 296 294 291 290 288 285 281 274 267 263
241 239 239 243 250 255 258 260 262 261 250 244 239 237 239 259 264 269 270 272 281 284 279 274 282 299 310 315 318 321 322 324 324 322 319 316 311 306 301 296 295 294 292 288 285 282 277 271 265
237 235 235 237 244 252 253 252 249 248 248 245 245 244 249 258 268 270 271 273 280 282 278 291 309 311 313 316 319 324 328 328 326 323 320 318 316 312 307 304 300 297 295 291 286 283 278 272 266
233 232 231 231 240 245 246 244 244 244 241 246 247 252 253 256 265 273 281 284 280 269 275 294 306 309 312 314 316 322 326 326 326 326 325 324 321 319 315 313 310 305 301 297 290 284 278 273 266
230 230 231 230 237 245 245 240 240 240 238 247 246 245 245 254 262 274 285 286 278 270 278 295 302 307 312 318 320 323 327 328 329 331 331 332 330 325 320 316 314 310 306 302 296 289 280 273 268
227 227 228 229 233 239 240 240 240 239 236 249 248 239 239 249 258 271 279 278 273 272 285 295 304 308 312 321 327 332 335 335 336 336 335 335 333 329 325 320 316 313 309 304 299 292 284 276 270
225 225 227 229 234 240 237 239 236 240 236 242 246 247 247 257 264 271 276 272 270 274 286 300 313 318 324 330 335 338 339 340 340 339 337 336 335 332 328 322 318 315 311 305 300 294 286 279 273
223 223 225 229 232 237 238 234 230 233 236 244 250 250 251 260 267 273 276 270 266 280 296 309 316 323 330 334 339 340 340 340 340 339 338 336 333 331 329 325 322 318 314 309 303 296 289 282 275
221 220 222 225 230 236 237 235 232 231 237 240 244 248 252 264 271 278 281 268 262 283 300 310 317 329 333 336 338 340 342 342 340 339 339 337 335 333 331 329 325 322 318 315 309 301 293 285 277
219 219 221 223 225 231 234 236 239 235 238 242 245 247 257 269 274 279 274 261 262 273 291 299 315 331 336 337 339 342 343 343 343 343 342 341 339 337 334 331 330 326 323 320 315 306 296 287 280
217 219 220 222 226 228 232 235 239 242 247 249 250 250 258 262 272 278 271 266 264 268 283 296 314 328 335 337 339 342 344 344 344 344 345 344 342 340 337 335 333 331 328 324 319 312 301 289 281
215 218 220 222 224 227 233 234 240 243 247 249 249 250 252 258 263 269 267 265 266 267 278 289 307 323 332 335 337 342 344 344 345 345 345 345 344 343 340 338 336 333 329 326 322 317 309 297 284
213 215 219 222 224 226 231 233 237 240 242 244 245 248 253 260 262 264 261 259 261 270 283 287 302 317 327 332 335 338 340 342 345 346 346 346 345 344 342 340 339 336 332 329 325 320 312 304 292
211 213 218 220 220 223 229 228 232 236 236 240 242 246 252 257 261 260 258 259 259 265 277 288 304 315 323 329 330 333 337 340 343 345 346 347 346 345 344 342 341 338 334 331 328 324 316 308 298
207 211 216 217 216 221 226 230 233 232 236 242 246 245 248 253 255 256 251 255 254 258 271 288 303 314 320 325 327 330 334 338 341 345 347 348 347 346 345 343 341 339 336 333 331 326 322 313 305
202 207 213 213 214 219 223 226 229 232 237 241 242 241 243 248 251 252 246 248 252 258 274 291 302 313 318 321 325 329 333 336 341 345 347 348 348 347 346 344 343 341 338 335 333 328 325 318 309
199 202 205 208 211 216 221 225 230 228 234 239 235 235 235 241 243 242 237 241 247 257 276 295 302 307 312 316 322 328 332 335 339 342 345 347 348 348 347 346 346 346 343 339 335 331 328 323 315
197 198 196 198 207 212 215 224 229 226 228 237 236 237 236 238 236 229 229 237 242 257 276 294 302 305 309 314 320 325 330 334 337 341 343 346 347 348 348 348 348 348 348 345 342 337 333 329 321
193 189 187 196 202 206 213 221 231 227 230 232 236 234 232 227 223 215 219 229 243 262 279 292 303 310 315 315 318 324 328 334 338 340 342 345 348 349 350 350 349 349 350 351 348 344 340 336 329
185 183 184 189 186 196 208 215 225 226 226 224 228 224 215 216 213 210 217 225 244 265 281 295 305 311 317 317 321 325 327 333 338 339 341 344 346 347 349 349 349 350 351 353 353 350 346 341 335
180 179 176 176 182 195 207 212 216 218 219 217 219 221 215 205 203 208 220 234 250 266 283 295 303 308 314 318 324 328 329 332 335 337 340 342 344 346 349 350 350 351 352 354 355 354 351 346 341
170 169 166 172 183 199 215 215 209 212 210 212 216 213 206 199 203 213 226 238 251 265 281 294 302 305 310 316 322 327 329 333 335 337 339 341 343 345 347 350 351 351 352 354 356 355 353 349 345
165 163 168 179 189 190 192 207 206 197 208 214 215 211 208 204 206 215 228 243 256 269 282 294 299 301 305 313 319 324 329 332 334 337 339 341 343 344 346 349 351 352 352 353 354 355 353 350 347
160 166 177 184 185 177 185 209 208 201 213 217 216 212 211 210 214 224 236 250 262 272 282 292 300 301 304 310 316 322 326 329 332 334 336 338 341 343 345 347 349 351 352 353 354 355 355 353 349
163 173 175 170 173 178 188 209 216 216 217 215 214 214 218 218 221 235 246 258 265 274 283 292 298 301 304 307 313 319 323 327 328 331 333 335 338 341 343 345 347 349 351 352 353 355 355 355 353
173 173 171 174 178 186 199 218 217 216 220 219 219 222 221 227 234 240 251 263 272 280 287 291 296 302 303 305 309 314 318 322 323 326 328 329 333 337 339 342 344 346 348 351 352 353 355 354 353
182 178 168 166 168 185 206 222 219 222 226 229 230 228 229 232 236 241 252 263 275 284 290 293 297 302 306 308 310 312 315 317 318 320 322 325 329 333 337 339 341 342 344 347 349 351 353 353 352
186 180 176 177 180 198 218 232 229 231 229 227 225 224 228 231 237 245 256 267 277 285 290 293 297 300 306 311 312 313 314 316 317 317 318 320 324 328 332 335 337 339 339 340 342 345 348 349 350
Height
5859 5860 5861 5862 5863 5863 5862 5861 5861 5861 5862 5863 5863 5863 5865 5866 5867 5870 5868 5868 5868 5868 5869 5869 5869 5869 5869 5869 5869 5869 5869 5868 5868 5867 5867 5866 5866 5866 5865 5865 5865 5865 5864 5864 5864 5864 5865 5865 5866
5857 5859 5860 5861 5862 5862 5862 5860 5860 5861 5861 5862 5862 5863 5864 5864 5866 5866 5866 5867 5868 5868 5868 5868 5868 5869 5869 5869 5869 5868 5868 5867 5867 5866 5865 5865 5865 5864 5864 5863 5863 5862 5862 5862 5862 5862 5862 5862 5863
5855 5856 5859 5860 5860 5860 5859 5858 5859 5860 5861 5861 5862 5863 5863 5864 5865 5866 5866 5867 5867 5867 5867 5867 5868 5868 5868 5868 5868 5867 5867 5866 5866 5865 5864 5864 5863 5863 5862 5861 5861 5860 5860 5859 5859 5859 5859 5860 5860
5852 5855 5857 5858 5858 5858 5857 5857 5859 5859 5860 5861 5861 5862 5863 5864 5865 5865 5865 5866 5867 5867 5867 5867 5867 5867 5867 5867 5867 5867 5866 5865 5864 5864 5863 5862 5861 5861 5860 5859 5859 5858 5858 5857 5857 5856 5857 5857 5857
5849 5852 5854 5855 5856 5856 5856 5857 5858 5859 5860 5860 5861 5862 5862 5863 5864 5864 5865 5866 5866 5866 5866 5867 5867 5867 5867 5867 5866 5866 5865 5864 5863 5863 5862 5861 5860 5859 5858 5857 5856 5856 5855 5854 5854 5854 5854 5854 5854
5847 5849 5852 5853 5853 5853 5854 5856 5857 5858 5858 5859 5860 5861 5862 5863 5863 5864 5864 5865 5865 5866 5866 5866 5866 5866 5866 5866 5865 5865 5864 5863 5862 5861 5860 5859 5858 5857 5856 5855 5854 5853 5852 5852 5851 5851 5851 5851 5851
5844 5846 5848 5850 5850 5850 5852 5854 5855 5856 5857 5858 5859 5860 5861 5862 5862 5863 5863 5864 5865 5865 5865 5865 5865 5865 5865 5865 5864 5864 5863 5862 5861 5860 5859 5858 5856 5855 5854 5853 5852 5851 5850 5849 5848 5848 5848 5848 5848
5840 5844 5845 5847 5847 5848 5850 5852 5854 5855 5856 5857 5858 5859 5860 5861 5861 5862 5863 5863 5864 5864 5864 5864 5865 5865 5864 5864 5864 5863 5862 5861 5860 5859 5857 5856 5855 5854 5852 5851 5850 5849 5847 5846 5846 5845 5845 5845 5845
5836 5841 5841 5843 5845 5846 5848 5850 5852 5853 5855 5856 5857 5858 5859 5860 5861 5861 5862 5862 5863 5863 5863 5863 5864 5864 5863 5863 5863 5862 5861 5860 5859 5857 5856 5855 5853 5852 5851 5849 5847 5846 5845 5844 5843 5842 5842 5841 5841
5832 5836 5839 5840 5842 5843 5846 5849 5850 5852 5854 5855 5856 5857 5858 5859 5860 5860 5861 5861 5862 5862 5862 5862 5863 5863 5863 5862 5862 5861 5860 5859 5858 5856 5855 5853 5852 5850 5849 5847 5845 5843 5842 5841 5840 5839 5838 5838 5838
5828 5832 5835 5837 5839 5841 5845 5847 5848 5850 5852 5854 5855 5856 5857 5858 5859 5859 5860 5860 5861 5861 5862 5862 5862 5862 5862 5862 5861 5861 5860 5858 5857 5855 5854 5852 5850 5849 5847 5845 5843 5841 5839 5838 5836 5835 5835 5835 5835
5825 5828 5831 5834 5837 5840 5843 5846 5847 5849 5851 5852 5854 5855 5856 5857 5858 5858 5859 5860 5860 5861 5861 5861 5862 5862 5861 5861 5860 5860 5859 5857 5856 5854 5853 5851 5849 5847 5845 5843 5841 5839 5837 5835 5834 5832 5832 5831 5831
5821 5825 5828 5832 5835 5839 5841 5844 5846 5848 5849 5851 5852 5853 5855 5856 5857 5857 5858 5858 5859 5860 5860 5861 5861 5861 5861 5860 5860 5859 5858 5857 5855 5853 5851 5849 5847 5845 5843 5841 5839 5837 5835 5833 5831 5830 5829 5828 5828
5818 5822 5826 5830 5834 5837 5840 5842 5845 5846 5848 5849 5851 5852 5854 5854 5856 5856 5857 5857 5858 5859 5859 5860 5860 5860 5860 5859 5859 5858 5857 5856 5854 5852 5850 5848 5846 5844 5842 5839 5837 5835 5832 5830 5829 5827 5825 5825 5824
5815 5820 5824 5828 5832 5835 5838 5841 5842 5844 5846 5847 5849 5851 5852 5853 5854 5855 5855 5856 5857 5858 5858 5859 5859 5859 5859 5859 5858 5857 5856 5855 5853 5851 5849 5847 5845 5842 5840 5837 5835 5833 5830 5828 5826 5824 5823 5822 5821
5813 5818 5822 5826 5829 5833 5837 5838 5840 5842 5844 5846 5847 5849 5851 5852 5852 5853 5854 5855 5856 5857 5857 5858 5858 5858 5858 5858 5857 5856 5855 5854 5852 5850 5848 5846 5844 5841 5838 5836 5833 5831 5828 5826 5824 5821 5820 5819 5818
5811 5816 5820 5824 5827 5831 5834 5835 5837 5839 5842 5844 5846 5847 5849 5850 5851 5852 5853 5854 5855 5856 5857 5857 5857 5857 5857 5856 5856 5855 5854 5853 5851 5849 5847 5845 5842 5840 5837 5835 5832 5829 5826 5824 5821 5819 5818 5816 5816
5810 5814 5818 5821 5825 5829 5832 5834 5836 5838 5841 5842 5844 5846 5847 5848 5850 5851 5852 5853 5854 5854 5855 5856 5856 5856 5856 5855 5855 5854 5853 5851 5850 5848 5846 5844 5841 5839 5836 5833 5831 5828 5825 5822 5819 5817 5815 5814 5813
5809 5813 5816 5820 5824 5828 5830 5832 5835 5837 5839 5841 5842 5844 5846 5847 5848 5849 5850 5851 5852 5853 5854 5854 5855 5854 5854 5854 5853 5853 5852 5850 5849 5847 5845 5843 5840 5838 5835 5832 5829 5826 5823 5820 5818 5815 5814 5812 5811
5807 5811 5815 5819 5822 5826 5829 5831 5833 5835 5838 5839 5841 5842 5844 5845 5847 5848 5849 5850 5851 5852 5853 5853 5853 5853 5853 5852 5852 5851 5850 5849 5848 5846 5844 5842 5840 5837 5834 5832 5829 5826 5823 5819 5817 5814 5812 5810 5809
5807 5811 5815 5819 5822 5825 5828 5830 5832 5834 5836 5838 5840 5841 5842 5844 5845 5846 5848 5849 5850 5851 5851 5852 5852 5852 5851 5851 5851 5850 5849 5848 5847 5845 5843 5841 5839 5836 5834 5831 5828 5825 5822 5819 5816 5813 5811 5809 5807
5807 5812 5816 5819 5821 5824 5827 5829 5831 5833 5835 5837 5838 5840 5841 5843 5844 5846 5847 5848 5849 5850 5850 5851 5851 5850 5850 5850 5849 5849 5848 5847 5846 5844 5842 5840 5838 5836 5833 5830 5828 5825 5822 5818 5815 5812 5810 5807 5806
5808 5812 5816 5819 5821 5824 5826 5828 5830 5831 5833 5836 5837 5839 5840 5842 5843 5844 5846 5847 5848 5849 5849 5849 5849 5849 5849 5849 5848 5847 5847 5846 5844 5843 5841 5839 5837 5835 5833 5830 5827 5824 5821 5818 5815 5812 5809 5807 5805
5809 5813 5816 5819 5821 5824 5826 5827 5829 5830 5833 5835 5836 5838 5839 5841 5842 5843 5845 5846 5847 5847 5848 5848 5848 5848 5847 5847 5847 5846 5845 5844 5843 5842 5840 5838 5837 5834 5832 5829 5827 5824 5821 5818 5815 5812 5809 5806 5804
5810 5814 5817 5819 5821 5824 5825 5826 5828 5830 5832 5834 5835 5837 5838 5840 5841 5842 5844 5844 5845 5846 5846 5846 5847 5846 5846 5846 5845 5845 5844 5843 5842 5841 5839 5838 5836 5834 5831 5829 5826 5823 5820 5817 5814 5811 5808 5806 5803
5811 5814 5818 5820 5821 5823 5825 5826 5828 5829 5832 5833 5834 5836 5837 5838 5840 5841 5842 5843 5844 5844 5845 5845 5845 5845 5845 5844 5844 5843 5842 5841 5840 5839 5838 5836 5835 5832 5830 5828 5825 5823 5820 5817 5814 5811 5808 5805 5803
5811 5814 5816 5819 5821 5823 5825 5826 5827 5829 5831 5832 5833 5835 5836 5837 5839 5840 5841 5841 5842 5843 5843 5843 5844 5843 5843 5843 5842 5842 5841 5840 5839 5838 5836 5835 5833 5831 5829 5827 5825 5822 5820 5817 5814 5811 5808 5805 5803
5812 5814 5817 5819 5821 5823 5824 5825 5827 5829 5830 5831 5832 5834 5835 5836 5837 5838 5839 5840 5841 5841 5842 5842 5842 5842 5841 5841 5840 5840 5839 5838 5837 5836 5835 5833 5832 5830 5828 5826 5823 5821 5819 5816 5813 5811 5808 5805 5803
5813 5815 5816 5818 5821 5824 5824 5827 5826 5828 5829 5830 5831 5832 5834 5835 5836 5837 5838 5838 5839 5840 5840 5840 5840 5840 5839 5839 5838 5838 5837 5836 5835 5834 5833 5832 5830 5828 5826 5824 5822 5820 5818 5815 5813 5810 5808 5805 5803
5813 5815 5817 5819 5822 5823 5824 5827 5825 5827 5828 5829 5830 5831 5832 5833 5834 5835 5836 5837 5837 5838 5838 5838 5838 5838 5837 5837 5836 5835 5835 5834 5833 5832 5831 5829 5828 5826 5825 5823 5821 5819 5816 5814 5812 5809 5807 5805 5803